TimeCDT,TemperatureF,Dew PointF,Humidity,Sea Level PressureIn,VisibilityMPH,Wind Direction,Wind SpeedMPH,Gust SpeedMPH,PrecipitationIn,Events,Conditions,WindDirDegrees,DateUTC
12:53 AM,73.0,66.9,81,30.14,10.0,South,10.4,-,N/A,,Clear,170,2012-10-12 05:53:00
1:53 AM,71.1,66.0,84,30.14,9.0,South,8.1,-,N/A,,Clear,180,2012-10-12 06:53:00
3:53 AM,69.1,66.0,90,30.14,8.0,South,5.8,-,N/A,,Mostly Cloudy,190,2012-10-12 08:53:00
4:53 AM,68.0,64.9,90,30.14,8.0,South,3.5,-,N/A,,Clear,180,2012-10-12 09:53:00
5:53 AM,66.9,64.0,90,30.16,8.0,Calm,Calm,-,N/A,,Clear,0,2012-10-12 10:53:00
6:53 AM,66.9,64.0,90,30.17,8.0,SSW,5.8,-,N/A,,Clear,200,2012-10-12 11:53:00
7:53 AM,69.1,64.9,87,30.18,8.0,SW,4.6,-,N/A,,Mostly Cloudy,220,2012-10-12 12:53:00
8:53 AM,70.0,64.9,84,30.20,8.0,South,5.8,-,N/A,,Overcast,170,2012-10-12 13:53:00
9:53 AM,72.0,64.9,78,30.22,9.0,South,5.8,-,N/A,,Overcast,180,2012-10-12 14:53:00
11:53 AM,75.9,64.9,69,30.22,10.0,SSE,4.6,-,N/A,,Overcast,160,2012-10-12 16:53:00
12:53 PM,79.0,66.0,64,30.19,10.0,SSE,4.6,-,N/A,,Scattered Clouds,160,2012-10-12 17:53:00
1:53 PM,81.0,66.0,60,30.17,10.0,Variable,6.9,-,N/A,,Mostly Cloudy,0,2012-10-12 18:53:00
2:53 PM,81.0,66.0,60,30.16,10.0,SSE,6.9,-,N/A,,Overcast,150,2012-10-12 19:53:00
3:53 PM,80.1,66.9,64,30.15,10.0,Calm,Calm,-,0.00,,Overcast,0,2012-10-12 20:53:00
5:53 PM,80.1,64.9,60,30.15,10.0,SSE,6.9,-,N/A,,Overcast,160,2012-10-12 22:53:00
6:53 PM,73.9,66.0,76,30.15,8.0,ENE,3.5,-,N/A,,Clear,70,2012-10-12 23:53:00
7:53 PM,72.0,69.1,91,30.15,8.0,Calm,Calm,-,N/A,,Clear,0,2012-10-13 00:53:00
8:53 PM,72.0,70.0,93,30.15,6.0,ESE,4.6,-,N/A,,Clear,120,2012-10-13 01:53:00
9:53 PM,71.1,69.1,93,30.14,5.0,SE,5.8,-,N/A,,Clear,130,2012-10-13 02:53:00
10:53 PM,70.0,68.0,93,30.14,5.0,SE,3.5,-,N/A,,Clear,140,2012-10-13 03:53:00
11:53 PM,69.1,64.9,87,30.13,7.0,SE,4.6,-,N/A,,Clear,140,2012-10-13 04:53:00